TimeEDT,TemperatureF,Dew PointF,Humidity,Sea Level PressureIn,VisibilityMPH,Wind Direction,Wind SpeedMPH,Gust SpeedMPH,PrecipitationIn,Events,Conditions,WindDirDegrees,DateUTC
12:53 AM,73.0,70.0,90,29.96,7.0,Calm,Calm,-,N/A,,Clear,0,2013-08-31 04:53:00
1:53 AM,72.0,70.0,93,29.96,6.0,Calm,Calm,-,N/A,,Partly Cloudy,0,2013-08-31 05:53:00
2:53 AM,71.1,69.1,93,29.95,7.0,Calm,Calm,-,N/A,,Partly Cloudy,0,2013-08-31 06:53:00
3:17 AM,71.6,69.8,94,29.95,7.0,Calm,Calm,-,N/A,,Mostly Cloudy,0,2013-08-31 07:17:00
3:53 AM,72.0,69.1,91,29.95,6.0,Calm,Calm,-,N/A,,Mostly Cloudy,0,2013-08-31 07:53:00
4:17 AM,71.6,69.8,94,29.95,5.0,ENE,3.5,-,N/A,,Scattered Clouds,60,2013-08-31 08:17:00
4:48 AM,71.6,69.8,94,29.95,5.0,Calm,Calm,-,N/A,,Mostly Cloudy,0,2013-08-31 08:48:00
4:53 AM,72.0,70.0,93,29.94,5.0,Calm,Calm,-,N/A,,Mostly Cloudy,0,2013-08-31 08:53:00
5:06 AM,73.4,69.8,88,29.95,5.0,Calm,Calm,-,N/A,,Overcast,0,2013-08-31 09:06:00
5:22 AM,73.4,71.6,94,29.95,4.0,Calm,Calm,-,N/A,,Overcast,0,2013-08-31 09:22:00
5:29 AM,73.4,71.6,94,29.95,1.8,Calm,Calm,-,N/A,,Overcast,0,2013-08-31 09:29:00
5:33 AM,73.4,71.6,94,29.95,0.8,Calm,Calm,-,N/A,,Overcast,0,2013-08-31 09:33:00
5:53 AM,73.0,71.1,93,29.95,0.2,Calm,Calm,-,N/A,Fog,Fog,0,2013-08-31 09:53:00
6:53 AM,73.0,72.0,96,29.96,0.5,Calm,Calm,-,N/A,Fog,Fog,0,2013-08-31 10:53:00
7:35 AM,73.4,71.6,94,29.97,1.5,Calm,Calm,-,N/A,,Overcast,0,2013-08-31 11:35:00
7:43 AM,73.4,71.6,94,29.97,2.0,Variable,3.5,-,N/A,,Overcast,0,2013-08-31 11:43:00
7:53 AM,73.0,72.0,96,29.97,1.8,East,3.5,-,N/A,,Overcast,100,2013-08-31 11:53:00
8:02 AM,73.4,71.6,94,29.98,2.0,Calm,Calm,-,N/A,,Overcast,0,2013-08-31 12:02:00
8:19 AM,73.4,71.6,94,29.99,3.0,Calm,Calm,-,N/A,,Overcast,0,2013-08-31 12:19:00
8:53 AM,73.9,72.0,93,29.99,4.0,Calm,Calm,-,N/A,,Overcast,0,2013-08-31 12:53:00
9:41 AM,75.2,71.6,89,30.00,8.0,SW,3.5,-,N/A,,Overcast,220,2013-08-31 13:41:00
9:53 AM,75.0,72.0,90,30.00,9.0,Calm,Calm,-,N/A,,Overcast,0,2013-08-31 13:53:00
10:44 AM,78.8,71.6,78,30.00,10.0,Calm,Calm,-,N/A,,Overcast,0,2013-08-31 14:44:00
10:53 AM,80.1,72.0,76,30.00,10.0,Variable,3.5,-,N/A,,Mostly Cloudy,0,2013-08-31 14:53:00
11:28 AM,82.4,73.4,74,29.99,10.0,Calm,Calm,-,N/A,,Scattered Clouds,0,2013-08-31 15:28:00
11:53 AM,82.9,72.0,69,29.98,10.0,Calm,Calm,-,N/A,,Partly Cloudy,0,2013-08-31 15:53:00
12:53 PM,84.0,71.1,65,29.97,10.0,Calm,Calm,-,N/A,,Scattered Clouds,0,2013-08-31 16:53:00
1:53 PM,87.1,70.0,57,29.96,10.0,Calm,Calm,-,N/A,,Mostly Cloudy,0,2013-08-31 17:53:00
2:53 PM,87.1,71.1,59,29.93,10.0,Calm,Calm,-,N/A,,Partly Cloudy,0,2013-08-31 18:53:00
3:53 PM,89.1,71.1,55,29.90,10.0,SSW,4.6,-,N/A,,Mostly Cloudy,210,2013-08-31 19:53:00
4:53 PM,87.1,71.1,59,29.89,10.0,South,4.6,-,N/A,,Partly Cloudy,180,2013-08-31 20:53:00
5:53 PM,87.1,71.1,59,29.90,10.0,South,3.5,-,N/A,,Partly Cloudy,170,2013-08-31 21:53:00
6:53 PM,81.0,70.0,69,29.91,10.0,NNW,9.2,-,N/A,,Mostly Cloudy,330,2013-08-31 22:53:00
7:53 PM,80.1,71.1,74,29.90,10.0,Calm,Calm,-,N/A,,Overcast,0,2013-08-31 23:53:00
8:53 PM,78.1,71.1,79,29.92,10.0,West,3.5,-,N/A,,Clear,260,2013-09-01 00:53:00
9:53 PM,77.0,71.1,82,29.93,10.0,SSW,3.5,-,N/A,,Clear,200,2013-09-01 01:53:00
10:53 PM,75.9,72.0,87,29.94,10.0,Calm,Calm,-,N/A,,Overcast,0,2013-09-01 02:53:00
11:53 PM,77.0,72.0,84,29.92,10.0,South,4.6,-,N/A,,Clear,190,2013-09-01 03:53:00